IBE108 SEQM-SEGU

Flight info

Callsign IBE108
Flight time 0h 34m
Altitude 24000
Route TEMOX3A TEMOX TEMOX2
Aircraft A343/H-SDE2E3FGHIJ4J5M1RWXY/LB1D1

Departure

Time 2026-05-04 15:54
Airport Mariscal Sucre International Airport (SEQM)

Arrival

Time 2026-05-04 16:28
Airport José Joaquín de Olmedo International Airport (SEGU)
Time Latitude Longitude Altitude Speed Heading
2026-05-04 15:35 -0.12489 -78.35927 7845 ft 0 kts 268°
2026-05-04 15:41 -0.12488 -78.35911 7837 ft 2 kts 268°
2026-05-04 15:41 -0.12487 -78.35894 7845 ft 2 kts 265°
2026-05-04 15:42 -0.12486 -78.35878 7845 ft 2 kts 262°
2026-05-04 15:42 -0.12484 -78.35862 7845 ft 2 kts 255°
2026-05-04 15:42 -0.12481 -78.35851 7835 ft 2 kts 240°
2026-05-04 15:42 -0.12470 -78.35839 7837 ft 2 kts 182°
2026-05-04 15:43 -0.12461 -78.35838 7846 ft 0 kts 176°
2026-05-04 15:45 -0.12464 -78.35838 7836 ft 1 kts 176°
2026-05-04 15:45 -0.12472 -78.35837 7845 ft 1 kts 176°
2026-05-04 15:45 -0.12486 -78.35836 7845 ft 3 kts 176°
2026-05-04 15:46 -0.12513 -78.35836 7845 ft 7 kts 179°
2026-05-04 15:46 -0.12593 -78.35833 7839 ft 14 kts 177°
2026-05-04 15:46 -0.12672 -78.35823 7839 ft 9 kts 159°
2026-05-04 15:46 -0.12699 -78.35761 7843 ft 12 kts 81°
2026-05-04 15:47 -0.12689 -78.35662 7838 ft 15 kts 89°
2026-05-04 15:47 -0.12742 -78.35601 7849 ft 12 kts 175°
2026-05-04 15:47 -0.12823 -78.35597 7850 ft 12 kts 178°
2026-05-04 15:47 -0.12905 -78.35594 7852 ft 11 kts 178°
2026-05-04 15:48 -0.12990 -78.35591 7854 ft 13 kts 178°
2026-05-04 15:48 -0.13082 -78.35587 7859 ft 13 kts 177°
2026-05-04 15:48 -0.13270 -78.35578 7871 ft 15 kts 177°
2026-05-04 15:49 -0.13369 -78.35574 7874 ft 15 kts 177°
2026-05-04 15:49 -0.13489 -78.35568 7881 ft 18 kts 177°
2026-05-04 15:49 -0.13615 -78.35562 7890 ft 18 kts 178°
2026-05-04 15:49 -0.13736 -78.35559 7896 ft 17 kts 179°
2026-05-04 15:50 -0.13856 -78.35555 7899 ft 19 kts 177°
2026-05-04 15:50 -0.14000 -78.35547 7909 ft 21 kts 176°
2026-05-04 15:50 -0.14123 -78.35541 7915 ft 13 kts 178°
2026-05-04 15:50 -0.14195 -78.35538 7922 ft 9 kts 177°
2026-05-04 15:51 -0.14238 -78.35518 7921 ft 6 kts 136°
2026-05-04 15:51 -0.14250 -78.35490 7920 ft 0 kts 100°
2026-05-04 15:51 -0.14250 -78.35488 7917 ft 0 kts 98°
2026-05-04 15:52 -0.14250 -78.35484 7923 ft 1 kts 96°
2026-05-04 15:52 -0.14252 -78.35468 7923 ft 6 kts 94°
2026-05-04 15:52 -0.14249 -78.35404 7920 ft 11 kts 77°
2026-05-04 15:52 -0.14180 -78.35371 7912 ft 20 kts 359°
2026-05-04 15:53 -0.13881 -78.35383 7912 ft 76 kts 357°
2026-05-04 15:53 -0.13127 -78.35419 7883 ft 138 kts 358°
2026-05-04 15:53 -0.11983 -78.35457 7914 ft 185 kts 359°
2026-05-04 15:53 -0.10660 -78.35479 8438 ft 196 kts 359°
2026-05-04 15:54 -0.09275 -78.35513 9225 ft 199 kts 359°
2026-05-04 15:54 -0.07880 -78.35689 9852 ft 213 kts 340°
2026-05-04 15:54 -0.06461 -78.36304 10337 ft 232 kts 337°
2026-05-04 15:54 -0.04862 -78.36979 10673 ft 264 kts 339°
2026-05-04 15:55 -0.03071 -78.37653 11075 ft 291 kts 341°
2026-05-04 15:55 -0.01072 -78.38351 11449 ft 316 kts 341°
2026-05-04 15:55 0.01083 -78.39083 11927 ft 335 kts 341°
2026-05-04 15:55 0.03317 -78.39833 12643 ft 342 kts 341°
2026-05-04 15:56 0.05611 -78.40598 13389 ft 349 kts 342°
2026-05-04 15:56 0.07914 -78.41437 14138 ft 355 kts 335°
2026-05-04 15:56 0.09923 -78.42832 14918 ft 360 kts 314°
2026-05-04 15:56 0.11297 -78.44936 15726 ft 363 kts 294°
2026-05-04 15:57 0.12227 -78.47307 16487 ft 369 kts 289°
2026-05-04 15:57 0.12793 -78.49826 17209 ft 374 kts 275°
2026-05-04 15:57 0.12658 -78.52428 17958 ft 378 kts 258°
2026-05-04 15:57 0.11758 -78.54903 18663 ft 383 kts 240°
2026-05-04 15:58 0.10149 -78.57028 19333 ft 386 kts 223°
2026-05-04 15:58 0.08132 -78.58769 19994 ft 391 kts 218°
2026-05-04 15:58 0.05986 -78.60478 20636 ft 395 kts 218°
2026-05-04 15:58 0.03823 -78.62203 21274 ft 399 kts 218°
2026-05-04 15:59 0.01640 -78.63955 21843 ft 405 kts 218°
2026-05-04 15:59 -0.00563 -78.65733 22427 ft 409 kts 218°
2026-05-04 15:59 -0.02794 -78.67538 23012 ft 413 kts 218°
2026-05-04 15:59 -0.05042 -78.69357 23561 ft 417 kts 218°
2026-05-04 16:00 -0.07312 -78.71197 24059 ft 422 kts 218°
2026-05-04 16:00 -0.09578 -78.73034 24298 ft 425 kts 218°
2026-05-04 16:00 -0.11843 -78.74872 24360 ft 414 kts 218°
2026-05-04 16:00 -0.14057 -78.76668 24361 ft 406 kts 218°
2026-05-04 16:01 -0.16250 -78.78447 24358 ft 405 kts 218°
2026-05-04 16:01 -0.18448 -78.80229 24360 ft 406 kts 218°
2026-05-04 16:01 -0.20645 -78.82011 24367 ft 406 kts 218°
2026-05-04 16:01 -0.22818 -78.83774 24366 ft 406 kts 218°
2026-05-04 16:02 -0.25016 -78.85555 24367 ft 406 kts 218°
2026-05-04 16:02 -0.27214 -78.87338 24367 ft 406 kts 218°
2026-05-04 16:02 -0.31588 -78.90887 24366 ft 406 kts 218°
2026-05-04 16:03 -0.33787 -78.92672 24371 ft 406 kts 218°
2026-05-04 16:03 -0.35999 -78.94466 24378 ft 406 kts 218°
2026-05-04 16:03 -0.38183 -78.96238 24376 ft 406 kts 218°
2026-05-04 16:03 -0.40333 -78.97982 24376 ft 405 kts 218°
2026-05-04 16:04 -0.42442 -78.99693 24378 ft 405 kts 218°
2026-05-04 16:04 -0.46828 -79.03251 24376 ft 405 kts 218°
2026-05-04 16:04 -0.49019 -79.05030 24387 ft 405 kts 218°
2026-05-04 16:05 -0.51180 -79.06782 24381 ft 405 kts 218°
2026-05-04 16:05 -0.53373 -79.08562 24375 ft 405 kts 218°
2026-05-04 16:05 -0.57765 -79.12094 24373 ft 405 kts 216°
2026-05-04 16:06 -0.60191 -79.13532 24380 ft 404 kts 205°
2026-05-04 16:06 -0.66980 -79.16690 24375 ft 404 kts 204°
2026-05-04 16:07 -0.70400 -79.18270 24375 ft 404 kts 204°
2026-05-04 16:07 -0.78028 -79.21811 24376 ft 404 kts 204°
2026-05-04 16:08 -0.80578 -79.22996 24312 ft 404 kts 204°
2026-05-04 16:08 -0.88160 -79.26521 24039 ft 394 kts 204°
2026-05-04 16:09 -0.93132 -79.28832 23053 ft 396 kts 204°
2026-05-04 16:09 -0.98121 -79.31151 22085 ft 394 kts 204°
2026-05-04 16:10 -1.03090 -79.33462 21059 ft 393 kts 204°
2026-05-04 16:11 -1.10482 -79.36900 19570 ft 388 kts 204°
2026-05-04 16:11 -1.12926 -79.38036 19060 ft 386 kts 204°
2026-05-04 16:12 -1.20165 -79.41400 17593 ft 379 kts 204°
2026-05-04 16:12 -1.27285 -79.44712 16111 ft 372 kts 204°
2026-05-04 16:13 -1.31958 -79.46887 15104 ft 369 kts 204°
2026-05-04 16:13 -1.36556 -79.49024 14197 ft 363 kts 204°
2026-05-04 16:14 -1.41126 -79.51148 13233 ft 360 kts 204°
2026-05-04 16:14 -1.45634 -79.53240 12262 ft 352 kts 205°
2026-05-04 16:15 -1.52144 -79.56275 10970 ft 338 kts 205°
2026-05-04 16:16 -1.56278 -79.58203 10725 ft 314 kts 204°
2026-05-04 16:16 -1.62016 -79.60867 9981 ft 299 kts 205°
2026-05-04 16:17 -1.65760 -79.62608 9453 ft 290 kts 205°
2026-05-04 16:18 -1.70866 -79.64979 8641 ft 253 kts 205°
2026-05-04 16:18 -1.72439 -79.65709 8348 ft 250 kts 205°
2026-05-04 16:19 -1.77062 -79.67858 6952 ft 241 kts 205°
2026-05-04 16:19 -1.80022 -79.69236 6322 ft 224 kts 205°
2026-05-04 16:20 -1.83905 -79.71038 5795 ft 192 kts 205°
2026-05-04 16:20 -1.86264 -79.72140 5529 ft 184 kts 205°
2026-05-04 16:21 -1.89833 -79.73465 4866 ft 182 kts 207°
2026-05-04 16:22 -1.92032 -79.74689 4456 ft 180 kts 210°
2026-05-04 16:22 -1.95285 -79.76564 3800 ft 178 kts 210°
2026-05-04 16:23 -1.98146 -79.78216 3245 ft 177 kts 210°
2026-05-04 16:24 -2.02362 -79.80649 2888 ft 161 kts 209°
2026-05-04 16:25 -2.04265 -79.81747 2429 ft 157 kts 210°
2026-05-04 16:26 -2.08020 -79.83912 1612 ft 147 kts 209°
2026-05-04 16:26 -2.10474 -79.85327 1056 ft 131 kts 208°
2026-05-04 16:27 -2.12054 -79.86237 696 ft 131 kts 208°
2026-05-04 16:28 -2.14422 -79.87605 167 ft 130 kts 210°
2026-05-04 16:28 -2.16218 -79.88639 33 ft 27 kts 211°
2026-05-04 16:29 -2.16219 -79.88749 33 ft 12 kts 30°
2026-05-04 16:30 -2.15897 -79.88565 33 ft 23 kts 30°
2026-05-04 16:31 -2.15760 -79.88554 33 ft 0 kts 305°